Date,TemperatureHighF,TemperatureAvgF,TemperatureLowF,DewpointHighF,DewpointAvgF,DewpointLowF,HumidityHigh,HumidityAvg,HumidityLow,PressureMaxIn,PressureMinIn,WindSpeedMaxMPH,WindSpeedAvgMPH,GustSpeedMaxMPH,PrecipitationSumIn
2013-1-1,31.3,20.8,11.6,14.7,8.3,3.6,82,61,37,30.42,30.25,6,1,15,0.00
2013-1-2,33.2,23.4,16.5,11.9,8.6,4.4,67,53,36,30.49,30.32,8,1,19,0.00
2013-1-3,38.2,24.5,12.3,11.2,4.7,1.1,70,45,21,30.51,30.37,11,2,12,0.00
2013-1-4,48.7,29.4,16.3,16.2,10.2,3.9,64,47,23,30.39,30.14,9,1,9,0.00
2013-1-5,40.1,28.3,17.5,16.9,12.8,7.1,69,53,35,30.41,30.17,20,2,20,0.00
2013-1-6,45.9,28.7,11.9,16.9,10.1,2.9,71,49,22,30.40,30.05,8,0,8,0.00
2013-1-7,52.7,38.2,23.6,17.5,13.2,9.1,76,38,19,30.09,29.81,12,1,13,0.00
2013-1-8,51.4,42.6,23.7,21.8,18.3,13.4,72,39,26,30.19,29.80,28,5,28,0.00
2013-1-9,62.4,37.7,22.9,25.3,18.2,13.5,69,48,21,30.34,30.02,17,2,17,0.00
2013-1-10,45.7,31.4,20.7,20.2,16.8,11.0,68,55,33,30.02,29.50,27,1,27,0.00
2013-1-11,46.0,30.4,9.7,26.3,15.3,0.5,79,56,27,29.86,29.28,30,7,31,0.00
2013-1-12,13.5,8.5,4.0,4.7,1.6,-0.9,81,73,61,30.37,29.86,13,2,16,0.00
2013-1-13,14.8,9.6,3.3,4.2,1.0,-2.0,79,68,55,30.47,30.36,12,1,12,0.00
2013-1-14,15.3,7.9,2.6,3.5,0.1,-4.0,88,71,53,30.51,30.41,7,0,7,0.00
2013-1-15,32.0,19.2,0.8,12.7,3.2,-5.8,74,52,34,30.50,30.36,13,2,13,0.00
2013-1-16,54.4,37.5,23.8,23.1,18.3,12.4,62,47,29,30.40,30.24,15,2,15,0.00
2013-1-17,51.4,33.9,20.2,22.3,17.0,12.6,74,52,28,30.51,30.28,12,1,12,0.00
2013-1-18,59.6,42.4,24.2,17.2,11.6,7.9,63,31,16,30.28,30.05,28,2,30,0.00
2013-1-19,60.4,47.5,32.1,14.8,9.9,4.2,44,22,14,30.16,30.04,21,4,25,0.00
2013-1-20,47.4,33.7,22.1,17.7,14.0,9.1,72,46,27,30.32,30.07,20,2,20,0.00
2013-1-21,56.7,38.6,15.6,19.3,12.5,5.2,77,41,16,30.32,30.07,25,4,25,0.00
2013-1-22,62.3,49.4,26.9,18.1,7.6,-0.8,53,20,10,30.08,29.93,26,6,28,0.00
2013-1-23,61.7,44.4,34.4,14.4,7.2,-0.8,37,22,11,30.12,30.04,15,2,17,0.00
2013-1-24,64.2,47.1,27.6,29.7,20.1,10.0,52,36,17,30.11,29.88,41,7,43,0.00
2013-1-25,57.7,42.0,30.2,30.2,25.5,20.2,69,53,34,30.08,29.96,13,1,13,0.00
2013-1-26,52.9,41.2,29.3,36.1,28.1,21.2,83,61,41,30.03,29.71,13,1,13,0.01
2013-1-27,56.7,43.0,30.7,36.5,31.6,22.2,88,67,39,29.74,29.63,13,2,14,0.00
2013-1-28,52.1,35.0,26.1,30.4,23.7,16.6,89,65,39,29.78,29.48,28,2,28,0.00
2013-1-29,30.0,24.9,19.1,22.1,14.8,8.4,87,67,41,30.11,29.75,20,2,22,0.08
2013-1-30,39.9,27.6,12.6,17.0,12.0,4.2,77,53,36,30.11,29.96,26,4,26,0.01
2013-1-31,46.1,35.1,24.1,27.3,20.4,14.6,78,56,33,30.18,29.99,31,3,31,0.01
2013-2-1,48.4,35.5,21.4,25.0,19.9,16.2,85,57,29,30.25,30.09,38,6,40,0.00
2013-2-2,57.9,39.8,22.4,23.9,18.1,14.3,75,45,19,30.32,30.21,21,2,24,0.00
2013-2-3,53.8,36.8,23.7,22.2,16.7,9.5,72,46,17,30.25,29.89,15,1,15,0.00
2013-2-4,55.1,41.8,28.3,16.8,13.2,8.9,47,32,19,30.01,29.81,30,6,30,0.00
2013-2-5,60.6,45.7,28.8,24.6,19.1,14.7,56,35,24,30.01,29.75,21,2,21,0.00
2013-2-6,53.1,41.5,30.3,31.9,24.6,18.9,84,53,32,30.06,29.73,17,2,19,0.00
2013-2-7,48.1,36.3,25.4,31.4,21.4,13.2,84,58,28,30.17,30.04,19,2,19,0.00
2013-2-8,50.5,33.1,20.3,21.0,15.1,9.9,68,49,22,30.05,29.75,11,1,11,0.00
2013-2-9,35.7,29.2,24.0,27.9,19.9,12.1,85,68,52,29.76,29.57,17,2,17,0.01
2013-2-10,35.9,27.8,21.1,19.8,14.6,9.5,81,60,34,30.19,29.67,28,3,28,0.00
2013-2-11,28.0,22.9,17.3,15.8,13.0,10.4,78,66,55,30.21,30.12,10,1,11,0.00
2013-2-12,41.7,28.2,13.6,12.8,6.7,-0.2,77,45,19,30.24,30.14,14,1,14,0.00
2013-2-13,46.4,35.9,22.8,17.4,13.1,7.9,54,39,29,30.16,29.98,31,6,33,0.00
2013-2-14,34.0,28.0,23.5,24.4,18.1,12.8,82,67,43,30.39,30.03,15,2,29,0.00
2013-2-15,41.9,27.8,16.6,17.8,14.3,10.6,79,59,30,30.47,30.33,19,3,19,0.01
2013-2-16,55.9,46.0,26.3,20.2,16.0,11.6,63,31,23,30.33,29.88,28,7,28,0.00
2013-2-17,61.8,46.7,31.0,18.5,11.7,6.3,55,26,12,29.89,29.42,33,8,33,0.00
2013-2-18,40.9,32.5,25.5,19.8,12.5,5.5,68,46,24,30.16,29.69,26,4,29,0.00
2013-2-19,39.8,34.0,25.3,14.9,13.7,12.2,61,43,35,30.15,29.89,13,2,15,0.00
2013-2-20,35.5,25.1,19.3,25.4,17.1,11.4,88,72,50,29.90,29.71,13,2,15,0.00
2013-2-21,25.4,19.7,14.4,20.0,15.3,9.8,92,83,75,30.10,29.86,12,1,12,0.15
2013-2-22,32.9,25.5,17.0,18.4,14.5,7.4,85,64,38,30.15,29.99,24,3,26,0.04
2013-2-23,44.7,31.9,18.0,27.7,17.2,6.8,87,56,36,29.99,29.66,19,3,24,0.00
2013-2-24,29.0,26.3,22.6,25.9,23.4,18.8,89,88,85,30.24,29.77,28,5,28,0.01
2013-2-25,35.5,23.6,9.9,20.5,15.4,6.0,86,72,51,30.25,29.98,16,1,16,0.11
2013-2-26,35.1,26.1,15.7,26.2,17.8,9.5,84,71,52,30.28,29.96,28,4,30,0.05
2013-2-27,35.2,27.0,15.6,15.0,11.3,6.4,71,52,34,30.39,30.28,16,2,18,0.00
2013-2-28,43.1,31.6,18.1,17.7,11.6,5.7,63,44,26,30.40,30.27,24,3,24,0.00
2013-3-1,45.0,36.1,26.8,23.7,19.6,14.6,66,51,38,30.37,30.28,14,2,15,0.00
2013-3-2,60.2,46.4,30.2,29.3,25.6,21.0,71,46,28,30.34,29.95,18,3,18,0.00
2013-3-3,62.6,52.5,41.9,28.3,25.6,20.9,53,36,24,29.95,29.50,33,7,36,0.00
2013-3-4,51.6,32.0,19.7,27.4,21.6,11.1,87,67,38,30.30,29.50,31,4,31,0.06
2013-3-5,38.7,26.3,14.1,23.0,15.8,7.4,76,65,48,30.45,30.28,10,1,10,0.02
2013-3-6,57.9,37.4,19.7,31.1,22.6,14.8,83,60,22,30.29,29.86,17,1,17,0.01
2013-3-7,62.7,45.3,28.4,32.2,27.3,21.5,76,53,25,29.97,29.81,17,2,18,0.00
2013-3-8,46.0,37.6,30.7,32.1,29.0,24.6,83,71,58,29.91,29.67,10,1,10,0.00
2013-3-9,34.9,31.4,24.4,30.0,27.2,17.6,91,84,71,30.17,29.64,27,5,27,0.14
2013-3-10,41.9,30.1,15.9,24.5,17.2,10.3,83,60,37,30.31,30.12,18,2,21,0.25
2013-3-11,51.9,41.6,30.9,29.2,23.3,18.0,89,52,33,30.14,29.87,33,8,37,0.01
2013-3-12,36.9,29.8,24.5,28.3,24.4,20.2,92,81,65,30.38,30.13,9,1,9,0.15
2013-3-13,63.2,43.9,25.6,35.8,27.4,21.2,86,57,25,30.38,30.20,22,3,23,0.00
2013-3-14,69.9,55.1,40.9,34.1,28.9,24.4,56,38,22,30.22,29.97,13,2,15,0.00
2013-3-15,74.4,65.5,51.7,30.2,27.7,25.0,39,24,18,29.97,29.60,32,8,32,0.00
2013-3-16,59.7,47.4,39.0,34.3,31.8,29.3,73,55,32,29.78,29.62,21,3,21,0.00
2013-3-17,58.1,45.0,33.0,31.7,24.6,16.6,72,47,24,29.78,29.44,40,7,40,0.00
2013-3-18,48.1,40.7,33.4,18.9,13.8,7.3,47,33,26,29.92,29.78,34,10,34,0.00
2013-3-19,53.0,42.5,28.8,17.2,10.9,2.3,58,29,15,30.33,29.90,35,6,35,0.00
2013-3-20,50.9,36.5,21.8,25.7,19.9,13.3,74,53,34,30.33,29.76,10,1,11,0.00
2013-3-21,57.8,44.6,37.2,35.5,24.7,13.2,68,46,27,29.76,29.43,31,5,33,0.01
2013-3-22,47.4,34.1,26.7,27.6,20.0,10.9,90,59,28,29.97,29.64,31,5,31,0.00
2013-3-23,26.2,19.0,13.3,23.4,15.4,8.2,89,86,74,30.40,29.96,24,5,24,0.00
2013-3-24,26.4,17.8,5.3,18.0,11.7,0.9,84,77,62,30.47,30.35,10,1,10,0.23
2013-3-25,33.9,23.3,12.8,16.4,11.7,7.3,85,64,33,30.49,30.36,11,1,11,0.02
2013-3-26,44.4,31.9,16.0,28.9,19.8,9.2,80,61,45,30.36,30.02,13,2,13,0.00
2013-3-27,53.2,40.9,28.3,36.9,29.8,22.2,83,66,46,30.12,30.02,13,2,13,0.00
2013-3-28,62.9,50.0,32.4,36.1,32.8,28.5,86,55,31,30.09,29.97,14,2,15,0.00
2013-3-29,65.3,52.3,38.1,35.1,31.6,28.7,74,48,27,30.04,29.91,34,4,34,0.00
2013-3-30,65.0,49.7,38.0,38.7,32.0,26.0,80,54,23,30.12,29.86,28,4,28,0.00
2013-3-31,67.8,51.9,35.3,35.0,29.1,23.3,83,48,20,30.11,29.82,17,3,17,0.00
2013-4-1,51.7,41.3,31.4,33.9,29.9,25.5,81,64,47,30.07,29.90,23,4,23,0.02
2013-4-2,39.6,37.1,35.2,34.1,32.4,30.7,89,83,74,30.15,30.04,13,3,13,0.24
2013-4-3,60.3,46.2,36.4,38.4,33.6,29.9,90,66,33,30.17,30.01,19,1,19,0.03
2013-4-4,67.0,54.1,37.7,37.0,31.9,29.6,76,46,25,30.08,29.84,18,2,18,0.00
2013-4-5,71.7,59.5,48.8,35.2,30.3,26.5,50,35,20,29.84,29.46,43,5,43,0.00
2013-4-6,64.8,54.1,44.1,35.3,27.9,23.1,58,37,24,29.76,29.64,28,4,31,0.00
2013-4-7,62.9,54.3,42.4,34.7,30.2,24.3,72,41,25,29.70,29.50,33,7,34,0.00
2013-4-8,63.0,45.5,25.2,36.7,31.0,21.8,87,59,35,29.75,29.23,42,6,42,0.00
2013-4-9,25.1,17.1,11.6,21.8,12.1,6.9,92,80,73,30.44,29.75,25,5,27,0.00
2013-4-10,26.2,19.4,9.6,15.5,10.8,4.4,82,69,54,30.44,30.10,14,2,15,0.02
2013-4-11,53.2,37.3,19.0,34.4,25.6,12.8,83,64,38,30.10,29.86,22,3,22,0.00
2013-4-12,58.7,42.3,31.9,34.5,30.2,24.0,80,64,28,29.95,29.81,26,3,30,0.00
2013-4-13,67.0,52.1,31.2,36.6,29.0,21.9,85,48,20,29.91,29.29,29,4,29,0.05
2013-4-14,47.6,41.8,37.0,37.7,20.7,12.0,87,45,26,29.72,29.38,48,13,48,0.21
2013-4-15,39.3,28.3,22.8,25.3,21.7,14.9,89,78,38,30.14,29.69,16,3,18,0.00
2013-4-16,31.7,26.9,22.3,28.4,24.5,19.6,95,91,85,30.15,29.97,21,4,21,0.08
2013-4-17,29.8,26.2,20.2,27.0,23.3,16.4,96,89,84,30.30,30.03,24,5,27,0.01
2013-4-18,35.7,26.6,13.7,16.3,13.5,9.1,91,60,37,30.31,30.25,15,1,15,0.11
2013-4-19,53.1,43.3,29.3,25.8,20.0,11.3,52,39,32,30.27,29.92,25,5,25,0.00
2013-4-20,57.4,46.7,34.0,34.6,30.1,24.1,76,54,36,29.92,29.80,21,2,21,0.00
2013-4-21,60.7,49.4,33.6,34.3,29.6,22.2,90,51,24,30.00,29.85,22,3,24,0.00
2013-4-22,48.9,33.8,22.8,36.4,27.2,19.8,89,78,53,30.35,29.78,24,3,26,0.00
2013-4-23,35.4,25.7,19.3,24.1,19.0,15.0,88,77,53,30.43,30.30,11,2,11,0.81
2013-4-24,54.7,40.7,25.3,24.6,20.1,16.5,74,47,24,30.31,30.17,14,2,14,0.00
2013-4-25,64.1,48.4,30.3,33.5,22.9,18.5,67,40,20,30.17,29.81,15,2,15,0.00
2013-4-26,65.2,56.1,40.6,31.6,26.4,21.5,57,34,21,30.08,29.91,10,2,15,0.00
2013-4-27,73.5,59.7,42.5,29.2,26.0,20.1,54,30,16,30.07,29.83,16,2,16,0.00
2013-4-28,80.0,66.0,47.9,36.5,25.2,17.6,42,24,11,29.84,29.57,19,2,19,0.00
2013-5-8,60.7,49.6,44.2,44.1,41.7,38.8,87,75,46,29.99,29.78,17,5,28,0.20
2013-5-9,57.3,50.1,45.7,43.5,41.4,38.3,88,73,49,30.09,29.98,8,2,21,0.55
2013-5-10,65.4,53.4,39.2,42.8,38.5,34.8,84,60,36,30.16,30.07,7,2,27,0.00
2013-5-11,66.7,56.8,45.6,41.5,39.0,36.4,73,53,35,30.25,30.05,11,3,24,0.00
2013-5-12,76.5,65.3,50.5,42.4,38.8,36.4,68,40,25,30.07,29.85,4,2,14,0.00
2013-5-13,84.7,72.9,59.0,44.4,41.5,36.7,47,33,24,29.88,29.70,8,2,20,0.00
2013-5-14,84.8,71.4,59.3,44.3,42.2,37.3,49,35,22,29.70,29.58,30,6,54,0.00
2013-5-15,80.9,65.8,56.3,51.1,45.0,40.0,76,49,27,29.70,29.55,31,3,34,0.24
2013-5-16,79.3,66.7,54.3,51.5,45.9,39.9,80,51,26,29.67,29.53,29,2,29,0.00
2013-5-17,85.8,71.0,52.9,49.0,40.0,26.5,72,39,13,29.61,29.40,26,4,26,0.00
2013-5-18,76.9,64.6,54.0,43.3,36.7,27.1,49,36,20,29.60,29.44,23,3,23,0.00
2013-5-19,62.8,55.1,51.4,38.9,36.1,31.5,58,49,33,29.60,29.56,15,1,15,0.00
2013-5-20,63.8,54.7,47.8,45.1,41.2,37.9,85,61,42,29.86,29.62,9,2,19,0.09
2013-5-21,69.5,57.4,45.8,42.4,37.3,33.6,79,50,29,29.89,29.70,5,2,19,0.00
2013-5-22,74.9,62.0,45.6,49.6,43.6,34.6,77,54,29,29.86,29.65,25,3,26,0.05
2013-5-23,69.7,58.4,47.5,50.3,46.1,43.0,85,65,43,29.90,29.73,23,3,23,0.00
2013-5-24,82.7,66.0,48.2,55.4,46.2,39.5,86,54,23,29.78,29.61,17,2,17,0.00
2013-5-25,86.3,72.0,56.1,55.0,44.4,28.5,76,42,14,29.71,29.49,17,1,17,0.00
2013-5-26,82.7,70.1,55.0,44.6,39.3,28.5,57,35,16,29.60,29.51,16,2,19,0.00
2013-5-27,81.3,69.4,52.3,43.3,35.8,28.6,53,32,16,29.56,29.41,25,2,26,0.00
2013-5-28,81.2,65.5,50.1,48.4,41.1,30.4,67,44,19,29.56,29.27,21,2,22,0.00
2013-5-29,65.9,56.3,46.6,49.7,43.3,33.2,89,64,33,29.53,29.32,33,3,33,0.44
2013-5-30,67.5,59.7,50.6,36.3,32.3,28.3,55,36,25,29.67,29.48,39,9,42,0.00
2013-5-31,70.5,62.1,54.8,31.2,25.2,20.3,37,25,17,29.79,29.63,33,9,35,0.00
2013-6-1,68.5,58.3,46.6,40.6,37.3,27.2,69,47,29,30.03,29.80,20,2,20,0.00
2013-6-2,82.5,64.9,43.8,42.2,37.8,32.0,70,40,21,30.03,29.55,19,2,19,0.00
2013-6-3,88.7,69.5,54.0,43.3,38.3,32.7,52,35,14,29.55,29.40,28,3,28,0.00
2013-6-4,71.5,62.0,50.4,52.6,47.5,29.9,83,61,28,30.00,29.59,24,4,28,0.07
2013-6-5,59.0,52.3,46.5,46.6,44.2,41.5,86,74,59,30.05,29.97,10,1,11,0.00
2013-6-6,78.5,62.2,43.7,50.2,43.3,39.6,86,55,28,30.01,29.83,13,1,13,0.00
2013-6-7,81.3,67.1,52.4,48.9,44.4,39.2,67,46,27,29.90,29.51,29,1,29,0.00
2013-6-8,74.6,67.5,61.1,49.7,44.5,41.0,58,44,33,29.78,29.45,21,3,24,0.00
2013-6-9,89.0,71.3,50.2,48.1,43.7,38.8,74,42,20,29.81,29.60,16,2,17,0.00
2013-6-10,96.0,82.0,64.9,49.6,43.1,39.1,43,27,16,29.61,29.42,23,2,23,0.00
2013-6-11,97.3,81.5,60.6,47.8,39.6,28.2,54,26,10,29.59,29.35,28,5,28,0.00
2013-6-12,91.0,77.1,59.0,53.6,40.2,32.5,55,28,17,29.74,29.57,21,3,27,0.00
2013-6-13,84.8,69.2,56.0,58.5,53.3,46.4,83,59,34,29.79,29.57,19,2,21,0.00
2013-6-14,86.3,77.1,64.3,52.2,46.2,41.3,58,35,22,29.65,29.49,35,6,35,0.00
2013-6-15,79.7,68.7,56.4,51.9,49.1,45.4,67,50,36,29.77,29.60,11,2,15,0.00
2013-6-16,85.0,69.9,57.3,53.7,47.2,36.8,78,48,21,29.85,29.74,31,2,31,0.00
2013-6-17,81.4,67.4,53.6,54.5,46.9,41.8,67,50,26,29.90,29.76,18,1,19,0.00
2013-6-18,81.5,68.0,55.8,54.8,50.7,46.7,81,56,30,29.87,29.59,32,2,35,0.00
2013-6-19,92.3,74.9,54.3,51.9,45.8,34.6,77,41,14,29.70,29.31,21,2,21,0.00
2013-6-20,89.0,74.2,57.3,52.9,41.6,30.7,71,34,17,29.58,29.39,15,1,15,0.00
2013-6-21,91.0,77.3,60.0,58.2,44.7,31.8,63,36,14,29.58,29.40,47,2,53,0.00
2013-6-22,84.7,70.2,57.3,52.2,49.0,45.1,68,48,27,29.61,29.41,17,1,18,0.00
2013-6-23,83.3,67.5,53.7,52.9,48.9,41.6,80,54,26,29.76,29.53,22,3,32,0.08
2013-6-24,88.0,74.2,59.0,53.2,45.3,32.0,67,40,18,29.65,29.42,21,2,21,0.00
2013-6-25,89.6,78.2,63.6,47.1,40.5,32.7,44,27,20,29.65,29.46,29,5,33,0.00
2013-6-26,95.0,79.8,61.6,50.1,45.3,42.2,53,32,18,29.75,29.62,17,2,17,0.00
2013-6-27,95.8,84.0,65.3,53.3,46.9,42.4,48,29,18,29.83,29.69,15,2,16,0.00
2013-6-28,90.8,76.8,63.3,59.1,54.1,47.3,70,47,32,29.91,29.72,31,4,36,0.30
2013-6-29,84.7,72.7,60.8,58.7,55.9,52.1,81,57,38,29.88,29.76,14,2,17,0.20
2013-6-30,77.5,68.6,61.9,57.5,55.1,52.6,77,63,46,29.90,29.82,19,3,21,0.00
2013-7-1,78.7,68.1,59.0,57.4,53.9,50.1,82,62,41,30.02,29.89,20,2,20,0.06
2013-7-2,81.5,69.2,55.3,57.0,52.0,46.1,90,58,33,29.99,29.84,18,1,18,0.09
2013-7-3,87.4,71.9,56.4,53.1,49.6,46.9,77,48,27,29.84,29.58,18,1,18,0.00
2013-7-4,89.8,76.3,60.8,54.1,49.8,46.9,63,41,25,29.67,29.55,23,2,26,0.00
2013-7-5,89.0,74.5,65.4,56.9,53.0,48.3,63,48,32,29.56,29.47,25,2,25,0.00
2013-7-6,89.9,77.6,67.9,59.9,52.7,48.4,61,43,27,29.62,29.50,31,3,31,0.00
2013-7-7,86.3,75.8,64.4,59.0,54.4,50.5,70,49,31,29.71,29.60,16,2,16,0.00
2013-7-8,93.8,78.8,65.9,59.0,53.1,44.5,70,44,19,29.73,29.64,36,2,36,0.00
2013-7-9,93.1,80.4,65.3,55.7,49.8,45.1,61,37,20,29.82,29.72,24,1,26,0.00
2013-7-10,90.0,76.6,62.3,60.1,54.1,46.6,67,47,28,29.84,29.65,18,1,19,0.00
2013-7-11,96.3,79.4,63.3,58.8,55.2,47.0,73,47,19,29.76,29.45,40,3,40,0.01
2013-7-12,91.1,76.0,67.6,62.8,56.8,51.4,81,54,29,29.70,29.52,34,2,34,0.05
2013-7-13,90.0,72.8,64.1,62.2,59.5,54.4,86,66,32,29.85,29.67,25,2,25,0.03
2013-7-14,80.5,69.8,60.0,62.9,59.3,56.1,88,71,47,29.93,29.76,19,2,19,0.02
2013-7-15,77.8,69.7,64.4,64.1,59.4,46.0,92,71,48,29.89,29.79,24,2,24,0.03
2013-7-16,82.2,70.5,55.5,55.6,50.8,46.0,77,52,33,29.91,29.83,26,3,26,0.01
2013-7-17,89.8,77.5,59.3,58.2,54.6,49.9,81,48,30,29.92,29.74,20,2,20,0.00
2013-7-18,92.0,72.5,64.8,57.4,54.0,51.7,66,53,31,29.82,29.67,30,4,34,0.00
2013-7-19,81.0,73.5,65.9,60.4,56.8,53.5,73,57,40,29.83,29.74,16,1,21,0.00
2013-7-20,89.3,72.9,60.2,59.5,55.4,51.8,80,57,30,29.75,29.57,18,2,29,0.00
2013-7-21,88.5,73.6,57.8,60.9,56.5,51.9,82,57,33,29.68,29.55,15,1,16,0.00
2013-7-22,92.2,79.4,60.6,61.4,53.5,43.7,80,43,26,29.64,29.54,16,1,16,0.00
2013-7-23,88.8,76.2,61.1,59.0,52.1,40.7,60,44,30,29.79,29.56,12,1,16,0.00
2013-7-24,82.6,73.2,60.8,62.7,55.8,47.3,76,56,31,29.87,29.71,25,2,25,0.00
2013-7-25,77.5,66.1,59.0,58.9,54.8,52.2,86,68,43,30.00,29.75,42,1,42,0.06
2013-7-26,83.5,70.6,59.0,57.4,52.6,45.9,81,56,29,30.02,29.83,23,1,23,0.06
2013-7-27,76.7,65.9,55.1,59.2,53.7,49.0,88,66,49,29.87,29.75,15,1,16,0.03
2013-7-28,71.5,63.2,59.0,60.3,57.9,56.1,91,83,67,29.82,29.69,13,0,13,0.02
2013-7-29,75.3,64.3,58.2,61.3,56.8,51.5,93,78,45,29.93,29.69,22,1,22,0.01
2013-7-30,88.5,71.7,57.5,59.3,53.6,50.3,83,56,29,29.97,29.84,15,1,16,0.01
2013-7-31,91.2,74.3,59.0,56.6,53.3,47.7,82,51,23,30.01,29.80,17,1,17,0.00
2013-8-1,92.9,75.0,62.9,58.9,54.1,47.4,78,52,23,29.89,29.61,27,2,27,0.00
2013-8-2,92.5,77.0,60.7,56.6,52.8,48.0,76,46,25,29.69,29.59,19,2,20,0.00
2013-8-3,89.3,71.9,61.8,62.5,57.2,51.9,87,63,30,29.95,29.67,28,2,29,0.01
2013-8-4,86.1,72.2,58.0,60.9,54.3,48.4,80,56,30,29.89,29.77,18,2,19,0.02
2013-8-5,85.5,72.7,60.3,58.3,53.0,49.3,74,52,31,29.77,29.68,28,2,28,0.01
2013-8-6,86.3,72.9,59.7,56.8,51.2,44.2,77,49,25,29.76,29.65,30,3,32,0.00
2013-8-7,73.8,66.1,60.5,57.2,53.2,47.9,83,64,48,29.81,29.71,17,1,17,0.00
2013-8-8,76.0,64.8,59.0,57.7,55.2,47.7,91,73,52,29.94,29.76,14,1,14,0.00
2013-8-9,78.2,66.0,53.8,53.4,50.1,47.4,81,58,36,29.97,29.89,21,2,21,0.00
2013-8-10,85.8,69.1,53.2,54.0,49.9,47.0,80,54,28,29.98,29.80,18,2,33,0.03
2013-8-11,80.8,71.3,59.0,54.0,50.7,47.6,74,50,33,29.90,29.81,17,1,17,0.02
2013-8-12,79.8,67.4,56.8,57.6,53.3,49.6,86,62,40,29.99,29.82,27,2,27,0.00
2013-8-13,79.5,66.8,54.6,54.4,51.4,46.9,82,59,38,29.98,29.86,24,2,24,0.01
2013-8-14,82.5,68.3,54.6,55.8,50.4,44.1,87,57,30,29.97,29.82,15,1,15,0.01
2013-8-15,86.0,69.4,54.0,55.2,49.4,42.8,76,52,26,29.89,29.80,26,0,33,0.00
2013-8-16,90.3,74.1,55.7,52.2,48.3,41.3,75,44,20,29.89,29.77,12,1,13,0.00
2013-8-17,94.0,77.4,59.4,54.3,48.4,37.2,75,42,14,29.83,29.64,12,0,12,0.00
2013-8-18,91.3,75.5,60.1,59.3,50.8,43.5,80,45,20,29.78,29.66,23,1,25,0.00
2013-8-19,95.5,77.3,59.1,54.8,49.2,45.2,68,41,20,29.77,29.63,15,1,18,0.00
2013-8-20,96.8,82.0,63.9,55.8,47.6,39.3,58,33,16,29.66,29.53,16,1,16,0.00
2013-8-21,90.3,75.7,65.8,58.8,52.4,46.4,77,47,27,29.78,29.62,22,2,22,0.01
2013-8-22,81.0,70.1,61.9,62.3,57.6,54.6,82,65,51,29.91,29.77,18,1,22,0.02
2013-8-23,86.5,71.4,61.8,59.8,56.3,51.7,80,61,34,29.89,29.64,28,2,28,0.00
2013-8-24,84.4,71.8,60.4,59.4,54.5,50.6,77,56,32,29.79,29.69,23,2,23,0.01
2013-8-25,89.6,74.6,61.4,56.9,53.9,51.0,73,50,29,29.83,29.73,23,1,23,0.01
2013-8-26,90.0,75.7,61.6,60.2,56.6,54.4,78,54,31,29.80,29.71,24,2,26,0.00
2013-8-27,89.1,77.8,63.8,58.8,56.7,54.1,75,50,31,29.79,29.65,16,1,18,0.00
2013-8-28,91.3,77.9,64.0,58.2,54.8,49.2,71,48,25,29.75,29.67,17,1,17,0.00
2013-8-29,92.0,79.1,66.0,55.5,52.0,50.0,59,41,25,29.80,29.73,18,1,20,0.00
2013-8-30,88.2,75.9,66.9,56.4,54.2,51.2,65,48,30,29.82,29.73,33,1,33,0.00
2013-8-31,89.9,75.5,65.1,58.2,53.0,49.8,67,47,27,29.77,29.67,26,2,26,0.00
2013-9-1,78.5,70.2,62.8,59.7,56.7,50.8,81,63,51,29.89,29.77,13,1,13,0.00
2013-9-2,91.2,74.9,59.0,60.2,56.0,51.0,86,56,27,29.85,29.67,12,0,12,0.00
2013-9-3,92.3,79.9,67.7,57.5,53.9,50.9,61,42,26,29.75,29.64,23,2,25,0.00
2013-9-4,90.0,77.6,65.9,57.9,55.2,53.0,68,47,30,29.82,29.72,17,1,19,0.00
2013-9-5,92.8,76.7,64.5,59.7,55.6,51.7,70,50,26,29.86,29.73,13,0,13,0.00
2013-9-6,95.3,78.4,63.6,56.8,53.3,47.8,66,44,21,29.79,29.64,26,1,26,0.00
2013-9-7,92.8,77.6,59.7,55.2,51.4,43.9,71,43,19,29.76,29.62,16,1,17,0.00
2013-9-8,89.2,74.0,59.6,53.5,51.5,49.0,70,47,28,29.68,29.50,19,1,21,0.00
2013-9-9,81.3,67.7,58.5,59.7,54.0,50.7,89,64,39,29.78,29.53,25,2,25,0.00
2013-9-10,64.7,60.3,58.7,58.4,56.9,55.7,91,89,78,30.00,29.75,13,0,13,0.02
2013-9-11,67.2,61.7,59.5,61.8,59.0,57.5,93,91,79,30.00,29.94,18,1,18,0.02
2013-9-12,63.6,61.0,59.0,60.8,58.3,55.7,94,91,85,30.06,29.96,20,2,22,0.02
2013-9-13,76.0,64.1,58.2,62.1,58.7,56.0,94,84,57,29.98,29.66,12,0,12,0.32
2013-9-14,74.7,64.9,56.9,60.8,56.3,51.3,91,75,47,29.78,29.61,24,1,25,0.05
2013-9-15,59.8,57.4,54.6,56.6,54.4,52.0,93,90,86,30.10,29.77,14,1,15,1.89
2013-9-16,74.3,61.7,54.3,58.2,54.5,51.7,92,79,55,30.08,29.82,7,0,7,0.00
2013-9-17,83.2,68.8,53.0,54.7,49.1,41.1,90,55,23,29.84,29.54,16,1,16,0.00
2013-9-18,84.0,69.6,57.4,53.2,48.0,43.4,72,48,29,29.61,29.47,29,2,37,0.00
2013-9-19,67.2,59.7,53.2,47.0,43.7,37.8,76,56,44,29.99,29.59,12,1,13,0.00
2013-9-20,72.8,59.0,46.7,47.7,45.1,41.5,89,63,35,30.02,29.84,8,0,9,0.00
2013-9-21,83.5,65.5,47.3,53.3,45.7,42.2,83,53,26,29.86,29.54,16,1,16,0.00
2013-9-22,79.3,65.1,53.6,52.1,47.4,41.6,88,55,33,29.55,29.30,33,1,33,0.07
2013-9-23,66.2,58.5,50.3,51.7,40.6,33.4,90,56,32,29.87,29.29,33,6,39,0.90
2013-9-24,77.5,60.6,43.8,44.7,38.2,33.4,73,46,26,29.96,29.63,12,1,12,0.00
2013-9-25,79.5,62.7,44.2,53.6,44.5,37.2,81,54,30,29.64,29.22,18,1,18,0.00
2013-9-26,68.8,57.5,47.5,47.9,43.7,37.5,76,61,36,29.55,29.31,11,0,12,0.00
2013-9-27,53.3,47.2,41.9,48.7,43.5,32.5,92,87,63,29.93,29.53,15,1,15,0.17
2013-9-28,67.9,52.8,37.3,39.5,33.4,26.5,75,50,28,30.08,29.93,24,2,24,0.00
2013-9-29,77.0,59.5,41.0,43.7,36.7,29.2,75,46,18,29.99,29.71,17,1,17,0.00
2013-9-30,83.3,68.7,57.5,48.4,39.4,30.0,54,35,22,29.73,29.49,21,1,22,0.00
2013-10-1,73.8,62.9,49.4,45.7,40.9,31.4,68,46,22,29.81,29.61,20,1,25,0.00
2013-10-2,75.5,60.7,45.8,47.1,42.6,37.7,82,55,28,29.79,29.64,15,1,15,0.00
2013-10-3,61.1,51.7,41.8,46.6,41.9,37.0,90,70,52,29.72,29.57,14,1,15,0.04
2013-10-4,47.9,38.5,33.0,45.0,31.8,24.5,90,78,53,30.19,29.63,24,3,25,0.42
2013-10-5,60.8,45.4,30.4,29.5,23.5,18.9,82,48,21,30.24,30.12,21,2,23,0.00
2013-10-6,69.0,53.1,37.0,39.8,30.5,20.1,67,44,28,30.18,30.07,19,1,19,0.00
2013-10-7,77.0,57.8,38.5,41.8,35.9,28.6,81,50,17,30.07,29.73,9,1,9,0.00
2013-10-8,77.4,61.6,48.7,42.6,37.8,29.5,64,43,19,29.73,29.47,15,1,16,0.00
2013-10-9,63.3,54.7,46.2,43.8,40.5,35.9,76,59,45,29.82,29.59,12,1,12,0.00
2013-10-10,58.6,50.1,43.6,47.3,42.9,35.0,93,77,63,29.80,29.39,28,1,28,0.07
2013-10-11,62.2,54.4,44.0,39.0,33.0,27.3,79,45,33,29.90,29.38,25,4,25,0.00
2013-10-12,55.8,46.9,40.4,41.9,39.2,36.2,89,75,58,30.08,29.90,15,1,15,0.00
2013-10-13,59.0,48.2,36.9,43.9,39.4,33.1,87,73,55,30.09,29.77,10,0,11,0.01
2013-10-14,51.5,45.1,39.6,42.3,36.8,28.9,89,73,56,30.12,29.71,29,2,29,0.26
2013-10-15,43.1,38.2,35.2,29.5,26.2,23.6,70,62,52,30.30,30.11,12,1,12,0.00
2013-10-16,52.1,40.3,28.2,31.9,28.0,24.0,92,64,39,30.23,30.01,10,1,10,0.00
2013-10-17,47.9,41.0,34.6,33.4,29.9,26.6,77,65,54,30.12,30.00,11,0,11,0.00
2013-10-18,43.9,36.9,31.3,33.0,28.9,26.8,95,74,53,30.21,30.04,13,1,14,0.21
2013-10-19,65.3,49.9,33.0,31.9,26.2,21.0,77,43,20,30.15,29.80,25,2,25,0.01
2013-10-20,53.2,42.7,35.2,35.5,31.6,25.4,89,67,35,30.09,29.76,16,1,16,0.28
2013-10-21,59.9,44.6,30.3,35.7,30.3,26.5,91,62,32,30.21,30.08,12,1,12,0.01
2013-10-22,63.6,51.7,36.2,36.1,32.1,27.6,75,49,33,30.14,30.00,15,1,15,0.00
2013-10-23,63.2,50.5,38.7,36.7,33.8,29.4,76,55,34,30.11,30.00,12,1,12,0.00
2013-10-24,53.2,42.9,34.4,38.7,34.9,30.1,87,74,57,30.22,30.11,11,0,11,0.00
2013-10-25,68.6,50.3,34.4,39.5,34.7,30.6,87,60,27,30.20,30.02,10,0,10,0.00
2013-10-26,62.4,49.5,37.6,37.9,34.1,30.4,76,57,35,30.25,30.02,11,0,11,0.00
2013-10-27,69.2,52.6,35.1,34.1,30.7,27.8,80,48,22,30.03,29.71,20,2,22,0.00
2013-10-28,49.0,37.2,32.0,33.5,30.8,29.0,91,79,49,30.06,29.73,15,1,15,0.01
2013-10-29,38.4,34.8,32.2,32.5,31.0,29.8,91,86,75,30.08,29.89,9,0,11,0.02
2013-10-30,43.4,37.2,33.0,37.0,33.0,28.3,92,85,75,30.00,29.83,16,1,18,0.18
2013-10-31,52.2,45.2,30.6,28.6,23.6,20.0,84,44,30,29.86,29.77,30,8,34,0.00
2013-11-1,52.1,43.1,35.2,31.9,27.5,23.9,76,55,36,30.18,29.83,12,0,13,0.00
2013-11-2,63.6,42.5,27.3,35.5,27.1,20.8,78,57,29,30.20,29.69,9,0,9,0.00
2013-11-3,67.1,49.6,35.7,30.0,25.9,20.8,71,45,18,29.72,29.41,23,3,23,0.00
2013-11-4,40.9,35.4,30.5,29.7,20.4,12.7,85,56,37,29.97,29.71,24,4,24,0.00
2013-11-5,43.9,34.7,28.2,24.7,16.9,9.0,73,50,25,30.21,29.94,30,3,30,0.00
2013-11-6,52.9,42.8,26.8,21.4,15.9,7.7,55,34,22,30.32,30.16,25,4,25,0.00
2013-11-7,56.7,42.2,26.1,30.1,24.0,17.7,75,50,29,30.37,29.97,13,1,13,0.00
2013-11-8,66.2,53.7,35.9,27.4,24.8,17.7,64,35,21,29.97,29.69,38,6,42,0.00
2013-11-9,62.6,47.1,36.1,35.3,29.1,23.4,68,51,28,30.18,29.88,13,2,13,0.00
2013-11-10,67.9,48.3,31.5,34.2,28.0,24.4,78,50,23,30.20,30.07,11,0,11,0.00
2013-11-11,66.3,41.7,30.5,33.4,27.4,23.8,90,61,23,30.65,30.11,21,2,22,0.00
2013-11-12,58.6,41.4,29.2,35.3,30.5,23.8,91,68,37,30.64,30.37,8,0,8,0.01
2013-11-13,69.5,50.0,29.9,27.6,23.9,18.5,85,41,17,30.37,29.90,16,1,16,0.00
2013-11-14,56.7,49.8,39.4,34.3,30.6,24.6,68,48,29,29.95,29.63,17,2,17,0.00
2013-11-15,63.9,47.9,33.2,29.9,24.7,18.8,77,45,19,29.63,29.36,23,2,23,0.00
2013-11-16,59.4,48.6,39.4,32.0,23.2,17.4,65,38,24,29.45,29.16,33,10,34,0.00
2013-11-17,56.2,45.1,35.0,27.8,20.8,16.9,69,39,24,30.00,29.44,36,9,42,0.00
2013-11-18,64.6,44.5,26.2,25.3,20.3,13.1,66,42,18,30.12,29.97,15,1,15,0.00
2013-11-19,61.1,48.8,30.9,30.9,23.9,16.7,62,39,23,29.98,29.63,33,6,34,0.00
2013-11-20,59.0,49.7,27.3,30.3,27.6,21.2,80,43,30,29.94,29.60,26,2,28,0.00
2013-11-21,27.1,17.0,14.1,23.3,11.9,7.4,92,80,73,30.83,29.94,13,2,21,0.00
2013-11-22,33.9,26.5,17.8,20.5,15.4,4.6,77,64,36,30.82,30.68,13,1,13,0.05
2013-11-23,34.4,28.5,24.7,21.9,19.5,5.9,85,69,38,30.76,30.42,8,0,8,0.01
2013-11-24,39.7,29.3,21.8,26.8,21.8,16.5,88,74,44,30.42,30.08,13,0,14,0.00
2013-11-25,43.5,36.3,28.7,28.3,22.8,18.4,80,59,40,30.35,30.13,16,2,16,0.00
2013-11-26,49.7,36.8,24.8,28.1,21.8,17.6,89,58,29,30.48,30.27,12,1,12,0.00
2013-11-27,65.5,42.2,22.6,28.9,22.5,17.1,84,50,22,30.27,30.02,11,1,13,0.00
2013-11-28,46.1,35.2,27.1,28.4,24.7,19.9,82,66,47,30.19,30.11,10,1,10,0.00
2013-11-29,61.9,44.3,27.1,28.0,23.7,20.3,88,50,23,30.18,30.07,17,2,18,0.00
2013-11-30,60.1,44.2,31.1,24.0,19.3,16.8,59,39,21,30.11,30.02,18,2,19,0.00
2013-12-1,56.6,44.2,29.8,25.8,21.2,16.0,69,43,20,30.11,29.81,28,3,28,0.00
2013-12-2,59.4,53.7,45.6,26.6,24.1,19.9,44,32,23,29.83,29.38,35,7,35,0.00
2013-12-3,54.9,36.5,11.6,29.5,19.3,6.6,87,54,30,29.78,29.29,29,4,30,0.00
2013-12-4,11.8,7.1,0.1,6.8,2.1,-6.1,85,80,72,30.43,29.77,15,2,15,0.00
2013-12-5,5.3,1.6,-4.1,-0.2,-4.2,-9.4,86,76,67,30.54,30.40,14,1,14,0.00
2013-12-6,6.0,0.7,-6.4,-1.1,-4.5,-10.0,89,78,69,30.67,30.53,10,1,10,0.00
2013-12-7,7.8,1.8,-5.5,2.2,-3.0,-10.2,88,80,70,30.64,30.19,12,0,13,0.00
2013-12-8,18.2,8.6,0.7,8.8,3.1,-2.5,90,78,65,30.37,30.10,10,0,10,0.00
2013-12-9,27.5,14.5,-2.5,4.6,-1.2,-6.8,85,54,26,30.45,30.33,35,4,35,0.00
2013-12-10,45.0,35.1,21.0,16.9,11.6,2.2,63,38,30,30.40,30.00,39,10,40,0.00
2013-12-11,29.2,21.3,13.4,17.5,13.3,8.1,85,71,59,30.52,30.30,11,1,11,0.00
2013-12-12,51.9,29.8,12.4,24.3,16.8,8.8,90,62,31,30.51,30.05,6,0,7,0.00
2013-12-13,49.4,32.6,17.4,22.4,16.3,10.4,85,55,21,30.23,29.91,16,1,16,0.00
2013-12-14,46.7,35.5,21.3,19.7,16.4,11.2,82,48,24,30.33,30.18,25,2,25,0.00
2013-12-15,56.6,48.6,37.1,22.8,18.9,10.9,44,31,19,30.19,30.00,36,8,36,0.00
2013-12-16,63.2,54.5,43.7,20.6,16.2,5.9,31,22,14,30.09,29.94,28,6,30,0.00
2013-12-17,63.7,49.2,30.3,23.5,18.5,14.7,54,32,17,30.23,29.96,28,4,28,0.00
2013-12-18,66.2,59.0,48.8,20.1,13.1,6.1,29,17,10,29.95,29.49,28,5,28,0.00
2013-12-19,48.5,33.7,16.0,25.3,19.7,12.3,91,59,29,29.92,29.43,18,2,18,0.00
2013-12-20,23.7,19.5,15.5,19.3,15.9,11.7,93,86,80,29.94,29.83,9,0,10,0.00
2013-12-21,31.3,22.5,12.7,23.8,18.2,8.7,95,84,59,30.08,29.76,14,1,14,0.00
2013-12-22,41.6,28.4,16.1,21.9,17.5,13.1,95,67,35,30.35,30.07,18,1,23,0.03
2013-12-23,47.2,29.2,16.6,25.8,19.8,12.9,92,70,40,30.42,30.21,24,1,24,0.00
2013-12-24,53.8,42.8,25.7,30.2,21.4,11.0,60,43,30,30.24,29.95,34,7,35,0.00
2013-12-25,44.2,31.2,16.6,14.6,11.7,7.9,84,48,24,30.48,30.23,19,2,20,0.00
2013-12-26,52.2,43.5,27.0,18.3,13.2,1.1,62,30,18,30.31,30.20,24,3,24,0.00
2013-12-27,59.7,41.7,27.3,25.8,20.9,15.6,61,45,26,30.28,30.02,8,1,8,0.00
2013-12-28,57.4,35.8,20.3,26.5,21.5,15.4,86,59,26,30.28,29.81,20,3,20,0.00
2013-12-29,40.9,27.2,16.8,19.4,14.3,10.2,83,61,30,30.32,30.03,25,2,29,0.04
2013-12-30,48.6,39.3,28.0,17.4,15.3,11.4,55,38,27,30.27,30.07,25,3,27,0.00
2013-12-31,56.4,47.2,32.9,25.4,20.7,13.1,50,35,25,30.08,29.82,28,5,28,0.00
2014-1-1,39.7,32.8,23.5,29.5,24.3,19.8,89,72,50,30.33,29.79,19,2,19,0.00
2014-1-2,43.7,29.7,18.8,26.0,20.1,13.6,85,69,35,30.41,30.11,11,1,12,0.00